Location: Morgantown
(40.9734°N, 80.6323°W)
Time: 19:31:32
(UTC+00:00)

Meteor 2-10 Rocket - Pass Details

Date: 29 October 2020
Orbit: 734 x 885 km, 81.2° (Epoch: 03 December)

Event Time Altitude Azimuth Distance (km) Brightness Sun altitude
Rises 22:50:08 0° 159° (SSE) 3,307 6.7 -6.1°
Reaches altitude 10° 22:52:49 10° 148° (SSE) 2,355 5.8 -6.6°
Maximum altitude 22:57:17 28° 91° (E) 1,415 4.4 -7.4°
Drops below altitude 10° 23:01:38 10° 33° (NNE) 2,293 5.6 -8.2°
Sets 23:04:12 0° 22° (NNE) 3,205 6.4 -8.7°
